Home > Weather > Albany > Past weeks

Flag for USA Past Weather in Albany, New York, USA — Yesterday and Last 2 Weeks

Now
83 °F

Scattered clouds.


Feels Like: 86 °F
Forecast: 71 / 84 °F
Wind: 8 mph from North

Location: Albany County Airport

Current Time: Jul 29, 2016 at 2:08:34 PM

Latest Report: Jul 29, 2016 at 12:51 PM


Visibility: 10 mi

Pressure: 29.87 "Hg

Humidity: 61%

Dew Point: 68 °F

Location of AlbanyLocation

Past Weather in Albany — Graph

°F

Albany Temperature Yesterday

Maximum temperature yesterday: 90 °F (at 2:51 PM)
Minimum temperature yesterday: 66 °F (at 4:51 AM)
Average temperature yesterday: 78 °F

High & Low Weather Summary for the Past Weeks

 TemperatureHumidityPressure
High93 °F (Jul 22, 2:51 PM)97% (Jul 15, 3:51 AM)30.25 "Hg (Jul 15, 3:51 AM)
Low54 °F (Jul 20, 5:51 AM)32% (Jul 27, 2:51 PM)29.72 "Hg (Jul 14, 3:51 PM)
Average76 °F65%29.95 "Hg
* Reported Jul 14 12:51 PM — Jul 29 12:51 PM, Albany, Weather by CustomWeather, © 2016

Note: Actual official high and low records may vary slightly from our data, if they occured in-between our weather recording intervals... More about our weather records

Advertising

Albany Weather History for the Previous 24 Hours

Scroll right to see more
 ConditionsComfort  
Time TempWeatherWind HumidityBarometerVisibility
12:51 PM
Fri, Jul 29
83 °FScattered clouds.8 mph61%29.87 "Hg10 mi
11:51 AM79 °FBroken clouds.8 mph69%29.89 "Hg10 mi
10:51 AM76 °FBroken clouds.8 mph74%29.90 "Hg10 mi
9:51 AM76 °FBroken clouds.7 mph74%29.90 "Hg10 mi
8:51 AM72 °FFog.6 mph84%29.89 "Hg8 mi
7:51 AM70 °FFog.5 mph90%29.89 "Hg8 mi
6:51 AM69 °FFog.5 mph93%29.88 "Hg8 mi
5:51 AM69 °FOvercast.3 mph93%29.86 "Hg7 mi
4:51 AM69 °FLight rain. Overcast.3 mph93%29.86 "Hg9 mi
3:51 AM69 °FLight rain. Fog.3 mph93%29.86 "Hg3 mi
2:51 AM71 °FThunderstorms. Mostly cloudy.3 mph81%29.88 "Hg10 mi
1:51 AM71 °FOvercast.5 mph81%29.88 "Hg10 mi
12:51 AM72 °FOvercast.3 mph78%29.88 "Hg10 mi
11:51 PM
Thu, Jul 28
73 °FOvercast.3 mph79%29.88 "Hg10 mi
10:51 PM75 °FOvercast.5 mph74%29.88 "Hg10 mi
9:51 PM76 °FOvercast.7 mph69%29.87 "Hg10 mi
8:51 PM79 °FMore clouds than sun.6 mph65%29.85 "Hg10 mi
7:51 PM80 °FOvercast.No wind60%29.85 "Hg10 mi
6:51 PM81 °FOvercast.3 mph58%29.85 "Hg10 mi
5:51 PM83 °FMore clouds than sun.5 mph57%29.85 "Hg10 mi
4:51 PM88 °FMostly cloudy.9 mph40%29.84 "Hg10 mi
3:51 PM90 °FOvercast.9 mph42%29.83 "Hg10 mi
2:51 PM90 °FOvercast.10 mph39%29.83 "Hg10 mi
Weather by CustomWeather, © 2016

See weather overviewHow to use our weather pages